Location: Rounton
(54.4000°N, 1.3500°W)
Time: 07:37:57
(UTC+00:00)

Tiros 1 despin weight - Pass Details

Date: 09 December 2021
Orbit: 592 x 641 km, 48.2° (Epoch: 19 January)

Event Time Altitude Azimuth Distance (km) Brightness Sun altitude
Rises 11:38:18 0° 219° (SW) 2,847 ? 12.6°
Reaches altitude 10° 11:41:01 10° 204° (SSW) 1,938 ? 12.7°
Maximum altitude 11:44:23 21° 154° (SSE) 1,341 ? 12.7°
Drops below altitude 10° 11:47:44 10° 105° (ESE) 1,928 ? 12.7°
Sets 11:50:25 0° 89° (E) 2,829 ? 12.7°
